User: anonymous   Login
Location: Unspecified
(0.0000°N, 0.0000°E)
Time: 00:09:45
(UTC+00:00)
Language:

SWISSCUBE - Orbit

View from above orbital plane
View from above orbital plane
View from above satellite
View from above satellite

Ground track
Ground track

The orbit data is extracted from the following two-line orbital elements,

1 35932U 09051B   17147.86329630 +.00000134 +00000-0 +41422-4 0  9999
2 35932 098.4927 286.0070 0006698 320.7231 039.3480 14.56007336407365
Epoch (UTC): 27 May 2017 20:43:08
Eccentricity: 0.0006698
inclination: 98.4927°
perigee height: 701 km
apogee height: 711 km
right ascension of ascending node: 286.0070°
argument of perigee: 320.7231°
revolutions per day: 14.56007336
mean anomaly at epoch: 39.3480°
orbit number at epoch: 40736

The dashed part of the orbit path shows where the satellite is in the earth's shadow,  

DLR